[[{"header":{"parameterUnit":"m.s-1","parameterCategory":1,"la1":30.2991,"la2":30.254,"lo1":-89.0895,"lo2":-89.0444,"dy":0.0017,"dx":0.0017,"nx":28,"ny":28,"refTime":"2023-09-11T21:00:00:Z","depth":0,"parameterNumber":2,"parameterNumberName":"U-component_of_WINDS"},"data":[0,0,0,0,0,0,0,0,0,0,0,0,0,0,0,0,0,0,0,0,0,0,0,0,0,0,0,0,0,0,0,0,0,0,0,0,0,0,0,0,0,0,0,0,0,0,0,0,0,0,0,0,0,0,0,0,0,0,2.6329,2.6329,0,2.6405,2.6406,2.6407,2.6334,2.6331,2.6328,2.6326,2.6404,2.6409,2.6414,0,0,0,0,0,0,0,0,0,0,0,0,0,2.6118,2.6122,2.6329,2.633,2.6331,2.6405,2.6406,2.6407,2.6335,2.6331,2.6328,2.6324,2.6403,2.6408,2.6414,0,0,0,0,0,0,0,0,0,0,0,0,0,2.6204,2.6124,2.6328,2.6303,2.6302,2.6405,2.6406,2.6408,2.6335,2.6331,2.6327,2.6323,2.6401,2.6408,2.6415,2.6547,0,0,2.6437,2.644,0,0,0,0,0,0,0,0,2.6199,2.6211,2.6306,2.6305,2.6304,2.6356,2.6361,2.6454,2.6336,2.6323,2.6325,2.632,2.6392,2.6399,2.6423,2.6551,2.6554,2.6438,2.6442,2.6445,2.6447,0,0,0,0,0,0,0,2.6193,2.6208,2.6359,2.6307,2.6306,2.6288,2.6295,2.6378,2.6381,2.6323,2.6318,2.6328,2.639,2.6417,2.6425,2.6555,2.6438,2.6444,2.6448,2.6451,2.6793,2.6798,0,0,0,0,0,0,2.619,2.6203,2.6356,2.6361,2.6239,2.6295,2.6303,2.6343,2.638,2.6381,2.6332,2.6325,2.6406,2.6416,2.6427,2.6583,2.6445,2.6452,2.6456,2.6788,2.6794,2.6799,0,0,0,0,0,0,2.6186,2.6204,2.6353,2.6281,2.6298,2.6303,2.6349,2.6347,2.6374,2.6386,2.6386,2.6359,2.6403,2.6417,2.6517,2.6585,2.6455,2.6462,2.6783,2.679,2.6797,2.6897,0,0,0,0,0,0,2.618,2.6203,2.6254,2.6283,2.6303,2.6443,2.6353,2.6352,2.6386,2.6377,2.6411,2.6413,2.6401,2.6507,2.6525,2.6592,2.6467,2.6777,2.6786,2.6794,2.6887,2.6906,2.6922,0,0,0,0,0,2.6173,2.6279,2.6257,2.6276,2.6366,2.6447,2.6458,2.6443,2.6392,2.6443,2.645,2.6411,2.6575,2.6518,2.6537,2.6608,2.6772,2.6783,2.6794,2.6879,2.6903,2.6922,0,0,0,0,0,0,2.6259,2.6283,2.6258,2.6377,2.6411,2.6435,2.6498,2.6468,2.6517,2.6507,2.6485,2.6494,2.66,2.6614,2.655,2.6737,2.6665,2.668,2.6724,2.6746,2.6763,2.6757,2.6473,0,0,0,0,0,2.6292,2.6356,2.6373,2.6476,2.6494,2.6494,2.6528,2.6513,2.6547,2.6561,2.6576,2.661,2.6669,2.6708,2.6763,2.6889,2.6894,2.6947,2.6965,2.6979,2.6992,2.7058,2.7081,2.6834,2.6834,2.6834,0,0,2.636,2.6381,2.6423,2.6494,2.6518,2.6584,2.6506,2.658,2.6628,2.6572,2.6667,2.668,2.6716,2.683,2.688,2.6845,2.7061,2.6993,2.7004,2.7009,2.7071,2.7095,2.7116,2.6842,2.684,2.6839,0,0,2.6519,2.6542,2.663,2.6655,2.6692,2.6691,2.6712,2.674,2.6746,2.6842,2.68,2.6858,2.696,2.6987,2.7014,2.7182,2.7147,2.72,2.7292,2.7356,2.7376,2.7393,2.7451,2.7473,2.7213,2.7213,2.7214,0,2.66,2.6698,2.6679,2.6755,2.6787,2.6739,2.6827,2.6853,2.6906,2.6929,2.6889,2.7014,2.7036,2.7154,2.7195,2.7219,2.7241,2.7196,2.7375,2.7392,2.7407,2.7463,2.7485,2.722,2.7219,2.7218,2.7218,0,2.6795,2.6863,2.693,2.6982,2.7021,2.7104,2.7096,2.7138,2.712,2.7122,2.7219,2.7243,2.7301,2.7328,2.7311,2.7444,2.742,2.7378,2.7305,2.7437,2.7489,2.751,2.7228,2.7226,2.7224,2.7223,0,0,2.7011,2.705,2.7075,2.7097,2.7134,2.7186,2.7266,2.7322,2.7358,2.7396,2.7461,2.7548,2.7508,2.7539,2.7525,2.7582,2.7711,2.7532,2.7532,2.7563,2.7857,2.7888,2.7913,2.7688,2.7692,2.7696,2.7853,0,2.717,2.7307,2.7292,2.7423,2.7485,2.7439,2.7508,2.7538,2.7542,2.7595,2.7599,2.7661,2.7605,2.7623,2.7677,2.7684,2.7769,2.7672,2.7748,2.7751,2.774,2.794,2.7974,2.8122,2.7874,2.7877,2.788,0,2.7374,2.7419,2.7556,2.7581,2.7607,2.7669,2.7719,2.777,2.7802,2.7801,2.7835,2.781,2.7889,2.7815,2.7922,2.7856,2.7886,2.7894,2.79,2.7906,2.7823,2.7951,2.8169,2.8191,2.7911,2.7909,2.7907,0,2.7517,2.7611,2.7705,2.7726,2.7758,2.7802,2.7818,2.7846,2.788,2.7923,2.7945,2.7997,2.8026,2.8066,2.8055,2.8003,2.8165,2.809,2.8165,2.8166,2.8201,2.8199,2.8426,2.8222,2.8222,2.8221,2.8221,0,2.7696,2.7781,2.7769,2.7827,2.7921,2.7902,2.7995,2.8005,2.803,2.8088,2.8051,2.8107,2.8089,2.8144,2.8136,2.8225,2.8238,2.8239,2.8236,2.8242,2.8242,2.8261,2.825,2.8227,2.8226,2.8225,2.8224,0,2.7871,2.7867,2.7966,2.7988,2.7995,2.8063,2.8082,2.8136,2.8136,2.821,2.8226,2.8228,2.8289,2.8282,2.8352,2.8346,2.8457,2.8442,2.8446,2.8442,2.8517,2.851,2.8764,2.8796,2.8572,2.8574,2.8576,0,2.7986,2.805,2.8079,2.8115,2.8133,2.8192,2.8226,2.821,2.8247,2.8287,2.8336,2.8394,2.844,2.8541,2.8547,2.86,2.8585,2.867,2.8593,2.8596,2.8585,2.8581,2.8587,2.8686,2.8688,2.869,2.8692,0,2.8189,2.8183,2.8234,2.8284,2.8326,2.8364,2.8399,2.8431,2.8417,2.8461,2.8523,2.8558,2.8628,2.8686,2.8735,2.8751,2.8719,2.8716,2.8736,2.8743,2.8742,2.8743,2.8487,2.8711,2.8709,2.8707,2.8706,2.8706,2.8337,2.8391,2.8419,2.8477,2.8501,2.8534,2.8585,2.8591,2.8643,2.8698,2.8685,2.8755,2.8784,2.8846,2.8867,2.8921,2.8889,2.8919,2.8926,2.8933,2.8941,2.8734,2.893,2.8929,2.8929,2.8928,2.8928,0,2.8537,2.8552,2.8605,2.8655,2.87,2.8665,2.8702,2.8741,2.8803,2.8833,2.8878,2.8949,2.9004,2.9015,2.9067,2.9109,2.9095,2.9123,2.9119,2.9123,2.8967,2.8944,2.9133,2.9133,2.9133,2.9133,2.9132,2.9132,2.8647,2.8737,2.8734,2.8835,2.8849,2.8917,2.894,2.897,2.8993,2.9074,2.9119,2.9126,2.9147,2.9201,2.925,2.9251,2.9272,2.9305,2.9301,2.9155,2.9134,2.9115,2.9093,2.931,2.931,2.9452,2.9454,2.9455]},{"header":{"parameterUnit":"m.s-1","parameterCategory":1,"la1":30.2991,"la2":30.254,"lo1":-89.0895,"lo2":-89.0444,"dy":0.0017,"dx":0.0017,"nx":28,"ny":28,"refTime":"2023-09-11T21:00:00:Z","depth":0,"parameterNumber":3,"parameterNumberName":"V-component_of_WINDS"},"data":[0,0,0,0,0,0,0,0,0,0,0,0,0,0,0,0,0,0,0,0,0,0,0,0,0,0,0,0,0,0,0,0,0,0,0,0,0,0,0,0,0,0,0,0,0,0,0,0,0,0,0,0,0,0,0,0,0,0,-0.7937,-0.7937,0,-0.7962,-0.7963,-0.7963,-0.7976,-0.7976,-0.7976,-0.7976,-0.8001,-0.8001,-0.8002,0,0,0,0,0,0,0,0,0,0,0,0,0,-0.79,-0.7901,-0.7937,-0.7937,-0.7938,-0.7962,-0.7963,-0.7963,-0.7976,-0.7976,-0.7976,-0.7976,-0.8001,-0.8001,-0.8002,0,0,0,0,0,0,0,0,0,0,0,0,0,-0.792,-0.7901,-0.7937,-0.7947,-0.7948,-0.7962,-0.7963,-0.7963,-0.7976,-0.7976,-0.7976,-0.7976,-0.8,-0.8001,-0.8002,-0.8008,0,0,-0.8005,-0.8006,0,0,0,0,0,0,0,0,-0.7919,-0.7921,-0.7945,-0.7946,-0.7948,-0.7966,-0.7959,-0.7978,-0.7976,-0.7965,-0.7976,-0.7976,-0.7989,-0.7991,-0.7996,-0.8009,-0.8011,-0.8005,-0.8006,-0.8006,-0.8007,0,0,0,0,0,0,0,-0.7917,-0.792,-0.7947,-0.7946,-0.7947,-0.795,-0.7953,-0.7963,-0.7977,-0.7966,-0.7967,-0.797,-0.799,-0.7995,-0.7996,-0.8011,-0.8005,-0.8006,-0.8007,-0.8007,-0.8032,-0.8032,0,0,0,0,0,0,-0.7914,-0.7919,-0.7946,-0.7948,-0.7933,-0.7951,-0.7954,-0.796,-0.7977,-0.7979,-0.797,-0.797,-0.7993,-0.7995,-0.7997,-0.8006,-0.8006,-0.8007,-0.8008,-0.8032,-0.8032,-0.8032,0,0,0,0,0,0,-0.7914,-0.7917,-0.7945,-0.7934,-0.7938,-0.7952,-0.7958,-0.796,-0.7965,-0.798,-0.7982,-0.7972,-0.7993,-0.7996,-0.8006,-0.8007,-0.8008,-0.8009,-0.8032,-0.8032,-0.8032,-0.8023,0,0,0,0,0,0,-0.7912,-0.7916,-0.7918,-0.7934,-0.7938,-0.7953,-0.7958,-0.7961,-0.7967,-0.7968,-0.7983,-0.7985,-0.7993,-0.8004,-0.8007,-0.8009,-0.801,-0.8032,-0.8032,-0.8032,-0.8024,-0.8023,-0.8023,0,0,0,0,0,-0.7911,-0.7914,-0.7918,-0.7922,-0.7941,-0.7953,-0.7956,-0.7966,-0.7967,-0.797,-0.7979,-0.7984,-0.8007,-0.8005,-0.8008,-0.801,-0.8032,-0.8032,-0.8032,-0.8024,-0.8023,-0.8023,0,0,0,0,0,0,-0.7898,-0.7917,-0.7921,-0.793,-0.794,-0.7955,-0.7959,-0.7964,-0.7974,-0.7974,-0.7986,-0.7989,-0.7998,-0.8005,-0.8003,-0.8018,-0.802,-0.8021,-0.8013,-0.8012,-0.8012,-0.801,-0.801,0,0,0,0,0,-0.7897,-0.7905,-0.792,-0.7926,-0.7931,-0.7944,-0.795,-0.7957,-0.7967,-0.7972,-0.7982,-0.7992,-0.8001,-0.8007,-0.8017,-0.8025,-0.8029,-0.8028,-0.8028,-0.8027,-0.8028,-0.8034,-0.8034,-0.8033,-0.8033,-0.8033,0,0,-0.7893,-0.7904,-0.7908,-0.7924,-0.7933,-0.7941,-0.7948,-0.7956,-0.7962,-0.7973,-0.7983,-0.7991,-0.8003,-0.8013,-0.8017,-0.8019,-0.8029,-0.8028,-0.8027,-0.8028,-0.8034,-0.8034,-0.8034,-0.8033,-0.8033,-0.8033,0,0,-0.7891,-0.79,-0.7906,-0.7915,-0.7929,-0.7937,-0.7939,-0.7954,-0.796,-0.797,-0.7979,-0.7987,-0.8002,-0.8011,-0.8018,-0.8021,-0.8026,-0.8023,-0.8021,-0.8027,-0.8027,-0.8027,-0.8028,-0.8029,-0.8024,-0.8024,-0.8024,0,-0.7884,-0.7897,-0.7909,-0.7917,-0.7924,-0.7935,-0.7942,-0.795,-0.7965,-0.797,-0.7972,-0.7993,-0.8002,-0.8014,-0.8015,-0.802,-0.8022,-0.8021,-0.8026,-0.8026,-0.8027,-0.8028,-0.8029,-0.8023,-0.8024,-0.8024,-0.8024,0,-0.7889,-0.7898,-0.7902,-0.7918,-0.7925,-0.7933,-0.7945,-0.7952,-0.7959,-0.7967,-0.7979,-0.799,-0.8002,-0.8006,-0.8012,-0.8019,-0.802,-0.8024,-0.8026,-0.8026,-0.8028,-0.8028,-0.8023,-0.8023,-0.8023,-0.8023,0,0,-0.7878,-0.7901,-0.7902,-0.791,-0.7927,-0.7934,-0.7942,-0.7955,-0.7961,-0.7972,-0.7979,-0.7993,-0.7997,-0.8005,-0.8012,-0.8017,-0.802,-0.8021,-0.8021,-0.802,-0.8029,-0.8026,-0.8027,-0.8024,-0.8024,-0.8024,-0.8028,0,-0.7878,-0.7894,-0.7905,-0.7917,-0.7926,-0.7937,-0.7945,-0.7956,-0.7965,-0.7974,-0.7984,-0.7993,-0.7998,-0.8002,-0.8008,-0.8018,-0.8022,-0.8018,-0.8031,-0.8032,-0.8028,-0.8027,-0.8024,-0.8027,-0.8029,-0.8029,-0.8029,0,-0.788,-0.7891,-0.7904,-0.7921,-0.7925,-0.7931,-0.7945,-0.7953,-0.7966,-0.7973,-0.7982,-0.799,-0.8,-0.8002,-0.8017,-0.8014,-0.802,-0.8026,-0.8027,-0.8028,-0.803,-0.8029,-0.8028,-0.8029,-0.803,-0.803,-0.803,0,-0.7871,-0.789,-0.79,-0.7906,-0.7926,-0.793,-0.7939,-0.7952,-0.7959,-0.7971,-0.7976,-0.7989,-0.7995,-0.8005,-0.8017,-0.8017,-0.803,-0.8033,-0.8036,-0.8036,-0.8037,-0.8037,-0.8038,-0.8042,-0.8042,-0.8042,-0.8042,0,-0.787,-0.7877,-0.7896,-0.7903,-0.7912,-0.7925,-0.7933,-0.7943,-0.7955,-0.7963,-0.7974,-0.7982,-0.7997,-0.8006,-0.8016,-0.8027,-0.8029,-0.8035,-0.8037,-0.8034,-0.8033,-0.8038,-0.8038,-0.8042,-0.8042,-0.8042,-0.8042,0,-0.7861,-0.7874,-0.7886,-0.7904,-0.7909,-0.7915,-0.793,-0.7937,-0.7947,-0.7958,-0.7961,-0.7977,-0.7989,-0.8002,-0.8019,-0.8025,-0.8036,-0.8039,-0.8031,-0.8032,-0.8034,-0.8034,-0.8038,-0.8039,-0.8042,-0.8042,-0.8042,0,-0.7859,-0.7865,-0.7884,-0.7891,-0.79,-0.791,-0.7918,-0.7932,-0.794,-0.7956,-0.7961,-0.7974,-0.7985,-0.8005,-0.8018,-0.8031,-0.8034,-0.8035,-0.8036,-0.8033,-0.8035,-0.8034,-0.8035,-0.8034,-0.8034,-0.8034,-0.8034,0,-0.7855,-0.7861,-0.7872,-0.7886,-0.7895,-0.7907,-0.7919,-0.7924,-0.794,-0.7948,-0.7961,-0.797,-0.7988,-0.8001,-0.8016,-0.8025,-0.8032,-0.8034,-0.8035,-0.8031,-0.8027,-0.803,-0.803,-0.8033,-0.8033,-0.8033,-0.8033,-0.8033,-0.7849,-0.7856,-0.7871,-0.7883,-0.7894,-0.7905,-0.7912,-0.7924,-0.7935,-0.795,-0.7958,-0.7971,-0.7986,-0.8007,-0.8016,-0.8026,-0.8028,-0.803,-0.8031,-0.8031,-0.803,-0.8025,-0.8029,-0.8029,-0.8029,-0.8029,-0.8029,0,-0.7846,-0.7856,-0.7867,-0.7884,-0.7894,-0.7901,-0.7915,-0.7923,-0.7934,-0.7947,-0.7959,-0.7974,-0.7987,-0.8002,-0.8016,-0.8022,-0.8026,-0.8025,-0.8025,-0.8027,-0.8027,-0.8025,-0.8022,-0.8022,-0.8022,-0.8022,-0.8022,-0.8022,-0.7845,-0.7856,-0.7865,-0.7882,-0.7892,-0.7906,-0.7913,-0.7924,-0.7934,-0.7951,-0.7962,-0.7972,-0.7986,-0.8002,-0.8015,-0.8019,-0.8023,-0.8022,-0.8027,-0.8026,-0.8027,-0.8027,-0.8025,-0.8023,-0.8023,-0.8026,-0.8026,-0.8026]}]]